HVDC transfer

From www.emi.ea.govt.nz provided by the Electricity Authority (New Zealand)
Run at: 20240503214757

Parameters
Date range,23 Dec 2020 - 19 Jan 2021
Time scale,Trading period
Show,Average flow (MW)

Period start,Period end,Trading period,Direction,Energy transfer (GWh),Peak flow (MW),Average flow (MW)
23/12/2020 00:00:00,23/12/2020 00:30:00,1,Northward at Haywards,0.044,87,87
23/12/2020 00:30:00,23/12/2020 01:00:00,2,Northward at Haywards,0.018,35,35
23/12/2020 01:00:00,23/12/2020 01:30:00,3,Northward at Haywards,0.009,17,17
23/12/2020 01:30:00,23/12/2020 02:00:00,4,Northward at Haywards,0.014,27,27
23/12/2020 02:00:00,23/12/2020 02:30:00,5,Northward at Haywards,0.011,21,21
23/12/2020 02:30:00,23/12/2020 03:00:00,6,Southward at Benmore,-0.011,-23,-23
23/12/2020 03:00:00,23/12/2020 03:30:00,7,Southward at Benmore,-0.021,-42,-42
23/12/2020 03:30:00,23/12/2020 04:00:00,8,Southward at Benmore,-0.028,-56,-56
23/12/2020 04:00:00,23/12/2020 04:30:00,9,Southward at Benmore,-0.022,-44,-44
23/12/2020 04:30:00,23/12/2020 05:00:00,10,Southward at Benmore,-0.013,-27,-27
23/12/2020 05:00:00,23/12/2020 05:30:00,11,Southward at Benmore,-0.002,-4,-4
23/12/2020 05:30:00,23/12/2020 06:00:00,12,Northward at Haywards,0.019,37,37
23/12/2020 06:00:00,23/12/2020 06:30:00,13,Northward at Haywards,0.054,107,107
23/12/2020 06:30:00,23/12/2020 07:00:00,14,Northward at Haywards,0.106,212,212
23/12/2020 07:00:00,23/12/2020 07:30:00,15,Northward at Haywards,0.169,337,337
23/12/2020 07:30:00,23/12/2020 08:00:00,16,Northward at Haywards,0.189,377,377
23/12/2020 08:00:00,23/12/2020 08:30:00,17,Northward at Haywards,0.208,416,416
23/12/2020 08:30:00,23/12/2020 09:00:00,18,Northward at Haywards,0.211,421,421
23/12/2020 09:00:00,23/12/2020 09:30:00,19,Northward at Haywards,0.205,410,410
23/12/2020 09:30:00,23/12/2020 10:00:00,20,Northward at Haywards,0.192,384,384
23/12/2020 10:00:00,23/12/2020 10:30:00,21,Northward at Haywards,0.193,385,385
23/12/2020 10:30:00,23/12/2020 11:00:00,22,Northward at Haywards,0.228,455,455
23/12/2020 11:00:00,23/12/2020 11:30:00,23,Northward at Haywards,0.223,445,445
23/12/2020 11:30:00,23/12/2020 12:00:00,24,Northward at Haywards,0.199,398,398
23/12/2020 12:00:00,23/12/2020 12:30:00,25,Northward at Haywards,0.185,370,370
23/12/2020 12:30:00,23/12/2020 13:00:00,26,Northward at Haywards,0.186,372,372
23/12/2020 13:00:00,23/12/2020 13:30:00,27,Northward at Haywards,0.190,379,379
23/12/2020 13:30:00,23/12/2020 14:00:00,28,Northward at Haywards,0.217,433,433
23/12/2020 14:00:00,23/12/2020 14:30:00,29,Northward at Haywards,0.216,431,431
23/12/2020 14:30:00,23/12/2020 15:00:00,30,Northward at Haywards,0.214,428,428
23/12/2020 15:00:00,23/12/2020 15:30:00,31,Northward at Haywards,0.231,462,462
23/12/2020 15:30:00,23/12/2020 16:00:00,32,Northward at Haywards,0.241,481,481
23/12/2020 16:00:00,23/12/2020 16:30:00,33,Northward at Haywards,0.245,490,490
23/12/2020 16:30:00,23/12/2020 17:00:00,34,Northward at Haywards,0.244,488,488
23/12/2020 17:00:00,23/12/2020 17:30:00,35,Northward at Haywards,0.226,451,451
23/12/2020 17:30:00,23/12/2020 18:00:00,36,Northward at Haywards,0.227,454,454
23/12/2020 18:00:00,23/12/2020 18:30:00,37,Northward at Haywards,0.199,397,397
23/12/2020 18:30:00,23/12/2020 19:00:00,38,Northward at Haywards,0.150,299,299
23/12/2020 19:00:00,23/12/2020 19:30:00,39,Northward at Haywards,0.134,268,268
23/12/2020 19:30:00,23/12/2020 20:00:00,40,Northward at Haywards,0.114,227,227
23/12/2020 20:00:00,23/12/2020 20:30:00,41,Northward at Haywards,0.103,205,205
23/12/2020 20:30:00,23/12/2020 21:00:00,42,Northward at Haywards,0.107,214,214
23/12/2020 21:00:00,23/12/2020 21:30:00,43,Northward at Haywards,0.078,155,155
23/12/2020 21:30:00,23/12/2020 22:00:00,44,Northward at Haywards,0.053,106,106
23/12/2020 22:00:00,23/12/2020 22:30:00,45,Northward at Haywards,0.033,66,66
23/12/2020 22:30:00,23/12/2020 23:00:00,46,Northward at Haywards,0.032,64,64
23/12/2020 23:00:00,23/12/2020 23:30:00,47,Northward at Haywards,0.015,30,30
23/12/2020 23:30:00,24/12/2020 00:00:00,48,Southward at Benmore,-0.030,-60,-60
24/12/2020 00:00:00,24/12/2020 00:30:00,1,Southward at Benmore,-0.059,-119,-119
24/12/2020 00:30:00,24/12/2020 01:00:00,2,Southward at Benmore,-0.077,-155,-155
24/12/2020 01:00:00,24/12/2020 01:30:00,3,Southward at Benmore,-0.091,-183,-183
24/12/2020 01:30:00,24/12/2020 02:00:00,4,Southward at Benmore,-0.098,-197,-197
24/12/2020 02:00:00,24/12/2020 02:30:00,5,Southward at Benmore,-0.099,-199,-199
24/12/2020 02:30:00,24/12/2020 03:00:00,6,Southward at Benmore,-0.112,-225,-225
24/12/2020 03:00:00,24/12/2020 03:30:00,7,Southward at Benmore,-0.127,-254,-254
24/12/2020 03:30:00,24/12/2020 04:00:00,8,Southward at Benmore,-0.122,-245,-245
24/12/2020 04:00:00,24/12/2020 04:30:00,9,Southward at Benmore,-0.100,-201,-201
24/12/2020 04:30:00,24/12/2020 05:00:00,10,Southward at Benmore,-0.095,-190,-190
24/12/2020 05:00:00,24/12/2020 05:30:00,11,Southward at Benmore,-0.075,-151,-151
24/12/2020 05:30:00,24/12/2020 06:00:00,12,Southward at Benmore,-0.053,-107,-107
24/12/2020 06:00:00,24/12/2020 06:30:00,13,Northward at Haywards,0.015,29,29
24/12/2020 06:30:00,24/12/2020 07:00:00,14,Northward at Haywards,0.039,78,78
24/12/2020 07:00:00,24/12/2020 07:30:00,15,Northward at Haywards,0.067,133,133
24/12/2020 07:30:00,24/12/2020 08:00:00,16,Northward at Haywards,0.113,226,226
24/12/2020 08:00:00,24/12/2020 08:30:00,17,Northward at Haywards,0.145,289,289
24/12/2020 08:30:00,24/12/2020 09:00:00,18,Northward at Haywards,0.146,292,292
24/12/2020 09:00:00,24/12/2020 09:30:00,19,Northward at Haywards,0.158,315,315
24/12/2020 09:30:00,24/12/2020 10:00:00,20,Northward at Haywards,0.124,247,247
24/12/2020 10:00:00,24/12/2020 10:30:00,21,Northward at Haywards,0.108,216,216
24/12/2020 10:30:00,24/12/2020 11:00:00,22,Northward at Haywards,0.117,233,233
24/12/2020 11:00:00,24/12/2020 11:30:00,23,Northward at Haywards,0.129,258,258
24/12/2020 11:30:00,24/12/2020 12:00:00,24,Northward at Haywards,0.106,211,211
24/12/2020 12:00:00,24/12/2020 12:30:00,25,Northward at Haywards,0.104,207,207
24/12/2020 12:30:00,24/12/2020 13:00:00,26,Northward at Haywards,0.099,198,198
24/12/2020 13:00:00,24/12/2020 13:30:00,27,Northward at Haywards,0.102,203,203
24/12/2020 13:30:00,24/12/2020 14:00:00,28,Northward at Haywards,0.080,159,159
24/12/2020 14:00:00,24/12/2020 14:30:00,29,Northward at Haywards,0.089,177,177
24/12/2020 14:30:00,24/12/2020 15:00:00,30,Northward at Haywards,0.103,205,205
24/12/2020 15:00:00,24/12/2020 15:30:00,31,Northward at Haywards,0.095,189,189
24/12/2020 15:30:00,24/12/2020 16:00:00,32,Northward at Haywards,0.090,179,179
24/12/2020 16:00:00,24/12/2020 16:30:00,33,Northward at Haywards,0.101,202,202
24/12/2020 16:30:00,24/12/2020 17:00:00,34,Northward at Haywards,0.101,201,201
24/12/2020 17:00:00,24/12/2020 17:30:00,35,Northward at Haywards,0.107,214,214
24/12/2020 17:30:00,24/12/2020 18:00:00,36,Northward at Haywards,0.124,247,247
24/12/2020 18:00:00,24/12/2020 18:30:00,37,Northward at Haywards,0.106,211,211
24/12/2020 18:30:00,24/12/2020 19:00:00,38,Northward at Haywards,0.114,228,228
24/12/2020 19:00:00,24/12/2020 19:30:00,39,Northward at Haywards,0.081,161,161
24/12/2020 19:30:00,24/12/2020 20:00:00,40,Northward at Haywards,0.069,138,138
24/12/2020 20:00:00,24/12/2020 20:30:00,41,Northward at Haywards,0.054,108,108
24/12/2020 20:30:00,24/12/2020 21:00:00,42,Northward at Haywards,0.036,72,72
24/12/2020 21:00:00,24/12/2020 21:30:00,43,Northward at Haywards,0.040,80,80
24/12/2020 21:30:00,24/12/2020 22:00:00,44,Northward at Haywards,0.026,51,51
24/12/2020 22:00:00,24/12/2020 22:30:00,45,Northward at Haywards,0.021,42,42
24/12/2020 22:30:00,24/12/2020 23:00:00,46,Northward at Haywards,0.026,51,51
24/12/2020 23:00:00,24/12/2020 23:30:00,47,Northward at Haywards,0.023,46,46
24/12/2020 23:30:00,25/12/2020 00:00:00,48,Northward at Haywards,0.011,21,21
25/12/2020 00:00:00,25/12/2020 00:30:00,1,Southward at Benmore,-0.083,-166,-166
25/12/2020 00:30:00,25/12/2020 01:00:00,2,Southward at Benmore,-0.059,-119,-119
25/12/2020 01:00:00,25/12/2020 01:30:00,3,Southward at Benmore,-0.065,-130,-130
25/12/2020 01:30:00,25/12/2020 02:00:00,4,Southward at Benmore,-0.065,-131,-131
25/12/2020 02:00:00,25/12/2020 02:30:00,5,Southward at Benmore,-0.070,-140,-140
25/12/2020 02:30:00,25/12/2020 03:00:00,6,Southward at Benmore,-0.093,-187,-187
25/12/2020 03:00:00,25/12/2020 03:30:00,7,Southward at Benmore,-0.105,-210,-210
25/12/2020 03:30:00,25/12/2020 04:00:00,8,Southward at Benmore,-0.105,-211,-211
25/12/2020 04:00:00,25/12/2020 04:30:00,9,Southward at Benmore,-0.106,-212,-212
25/12/2020 04:30:00,25/12/2020 05:00:00,10,Southward at Benmore,-0.098,-197,-197
25/12/2020 05:00:00,25/12/2020 05:30:00,11,Southward at Benmore,-0.074,-148,-148
25/12/2020 05:30:00,25/12/2020 06:00:00,12,Southward at Benmore,-0.066,-132,-132
25/12/2020 06:00:00,25/12/2020 06:30:00,13,Southward at Benmore,-0.034,-68,-68
25/12/2020 06:30:00,25/12/2020 07:00:00,14,Southward at Benmore,-0.001,-2,-2
25/12/2020 07:00:00,25/12/2020 07:30:00,15,Northward at Haywards,0.037,73,73
25/12/2020 07:30:00,25/12/2020 08:00:00,16,Northward at Haywards,0.041,81,81
25/12/2020 08:00:00,25/12/2020 08:30:00,17,Northward at Haywards,0.106,212,212
25/12/2020 08:30:00,25/12/2020 09:00:00,18,Northward at Haywards,0.126,252,252
25/12/2020 09:00:00,25/12/2020 09:30:00,19,Northward at Haywards,0.148,296,296
25/12/2020 09:30:00,25/12/2020 10:00:00,20,Northward at Haywards,0.131,261,261
25/12/2020 10:00:00,25/12/2020 10:30:00,21,Northward at Haywards,0.123,245,245
25/12/2020 10:30:00,25/12/2020 11:00:00,22,Northward at Haywards,0.117,233,233
25/12/2020 11:00:00,25/12/2020 11:30:00,23,Northward at Haywards,0.119,238,238
25/12/2020 11:30:00,25/12/2020 12:00:00,24,Northward at Haywards,0.107,214,214
25/12/2020 12:00:00,25/12/2020 12:30:00,25,Northward at Haywards,0.103,206,206
25/12/2020 12:30:00,25/12/2020 13:00:00,26,Northward at Haywards,0.105,210,210
25/12/2020 13:00:00,25/12/2020 13:30:00,27,Northward at Haywards,0.087,173,173
25/12/2020 13:30:00,25/12/2020 14:00:00,28,Northward at Haywards,0.080,160,160
25/12/2020 14:00:00,25/12/2020 14:30:00,29,Northward at Haywards,0.073,145,145
25/12/2020 14:30:00,25/12/2020 15:00:00,30,Northward at Haywards,0.083,165,165
25/12/2020 15:00:00,25/12/2020 15:30:00,31,Northward at Haywards,0.087,174,174
25/12/2020 15:30:00,25/12/2020 16:00:00,32,Northward at Haywards,0.084,167,167
25/12/2020 16:00:00,25/12/2020 16:30:00,33,Northward at Haywards,0.108,215,215
25/12/2020 16:30:00,25/12/2020 17:00:00,34,Northward at Haywards,0.112,224,224
25/12/2020 17:00:00,25/12/2020 17:30:00,35,Northward at Haywards,0.108,216,216
25/12/2020 17:30:00,25/12/2020 18:00:00,36,Northward at Haywards,0.128,256,256
25/12/2020 18:00:00,25/12/2020 18:30:00,37,Northward at Haywards,0.126,251,251
25/12/2020 18:30:00,25/12/2020 19:00:00,38,Northward at Haywards,0.078,155,155
25/12/2020 19:00:00,25/12/2020 19:30:00,39,Northward at Haywards,0.057,113,113
25/12/2020 19:30:00,25/12/2020 20:00:00,40,Northward at Haywards,0.058,115,115
25/12/2020 20:00:00,25/12/2020 20:30:00,41,Northward at Haywards,0.051,102,102
25/12/2020 20:30:00,25/12/2020 21:00:00,42,Northward at Haywards,0.097,193,193
25/12/2020 21:00:00,25/12/2020 21:30:00,43,Northward at Haywards,0.101,201,201
25/12/2020 21:30:00,25/12/2020 22:00:00,44,Northward at Haywards,0.080,160,160
25/12/2020 22:00:00,25/12/2020 22:30:00,45,Northward at Haywards,0.054,108,108
25/12/2020 22:30:00,25/12/2020 23:00:00,46,Northward at Haywards,0.025,50,50
25/12/2020 23:00:00,25/12/2020 23:30:00,47,Southward at Benmore,-0.009,-19,-19
25/12/2020 23:30:00,26/12/2020 00:00:00,48,Southward at Benmore,-0.039,-78,-78
26/12/2020 00:00:00,26/12/2020 00:30:00,1,Southward at Benmore,-0.041,-83,-83
26/12/2020 00:30:00,26/12/2020 01:00:00,2,Southward at Benmore,-0.056,-112,-112
26/12/2020 01:00:00,26/12/2020 01:30:00,3,Southward at Benmore,-0.077,-154,-154
26/12/2020 01:30:00,26/12/2020 02:00:00,4,Southward at Benmore,-0.088,-177,-177
26/12/2020 02:00:00,26/12/2020 02:30:00,5,Southward at Benmore,-0.098,-197,-197
26/12/2020 02:30:00,26/12/2020 03:00:00,6,Southward at Benmore,-0.103,-207,-207
26/12/2020 03:00:00,26/12/2020 03:30:00,7,Southward at Benmore,-0.104,-208,-208
26/12/2020 03:30:00,26/12/2020 04:00:00,8,Southward at Benmore,-0.109,-218,-218
26/12/2020 04:00:00,26/12/2020 04:30:00,9,Southward at Benmore,-0.109,-219,-219
26/12/2020 04:30:00,26/12/2020 05:00:00,10,Southward at Benmore,-0.089,-179,-179
26/12/2020 05:00:00,26/12/2020 05:30:00,11,Southward at Benmore,-0.089,-179,-179
26/12/2020 05:30:00,26/12/2020 06:00:00,12,Southward at Benmore,-0.070,-140,-140
26/12/2020 06:00:00,26/12/2020 06:30:00,13,Southward at Benmore,-0.044,-89,-89
26/12/2020 06:30:00,26/12/2020 07:00:00,14,Southward at Benmore,-0.015,-30,-30
26/12/2020 07:00:00,26/12/2020 07:30:00,15,Northward at Haywards,0.001,2,2
26/12/2020 07:30:00,26/12/2020 08:00:00,16,Northward at Haywards,0.022,44,44
26/12/2020 08:00:00,26/12/2020 08:30:00,17,Northward at Haywards,0.047,93,93
26/12/2020 08:30:00,26/12/2020 09:00:00,18,Northward at Haywards,0.094,188,188
26/12/2020 09:00:00,26/12/2020 09:30:00,19,Northward at Haywards,0.061,122,122
26/12/2020 09:30:00,26/12/2020 10:00:00,20,Northward at Haywards,0.068,136,136
26/12/2020 10:00:00,26/12/2020 10:30:00,21,Northward at Haywards,0.010,20,20
26/12/2020 10:30:00,26/12/2020 11:00:00,22,Northward at Haywards,0.013,25,25
26/12/2020 11:00:00,26/12/2020 11:30:00,23,Southward at Benmore,-0.004,-9,-9
26/12/2020 11:30:00,26/12/2020 12:00:00,24,Southward at Benmore,-0.006,-12,-12
26/12/2020 12:00:00,26/12/2020 12:30:00,25,Southward at Benmore,-0.014,-29,-29
26/12/2020 12:30:00,26/12/2020 13:00:00,26,Southward at Benmore,-0.016,-33,-33
26/12/2020 13:00:00,26/12/2020 13:30:00,27,Southward at Benmore,-0.017,-34,-34
26/12/2020 13:30:00,26/12/2020 14:00:00,28,Southward at Benmore,-0.015,-30,-30
26/12/2020 14:00:00,26/12/2020 14:30:00,29,Northward at Haywards,0.010,20,20
26/12/2020 14:30:00,26/12/2020 15:00:00,30,Northward at Haywards,0.018,35,35
26/12/2020 15:00:00,26/12/2020 15:30:00,31,Northward at Haywards,0.046,91,91
26/12/2020 15:30:00,26/12/2020 16:00:00,32,Northward at Haywards,0.066,131,131
26/12/2020 16:00:00,26/12/2020 16:30:00,33,Northward at Haywards,0.081,162,162
26/12/2020 16:30:00,26/12/2020 17:00:00,34,Northward at Haywards,0.097,193,193
26/12/2020 17:00:00,26/12/2020 17:30:00,35,Northward at Haywards,0.085,170,170
26/12/2020 17:30:00,26/12/2020 18:00:00,36,Northward at Haywards,0.106,211,211
26/12/2020 18:00:00,26/12/2020 18:30:00,37,Northward at Haywards,0.106,212,212
26/12/2020 18:30:00,26/12/2020 19:00:00,38,Northward at Haywards,0.102,203,203
26/12/2020 19:00:00,26/12/2020 19:30:00,39,Northward at Haywards,0.087,174,174
26/12/2020 19:30:00,26/12/2020 20:00:00,40,Northward at Haywards,0.070,140,140
26/12/2020 20:00:00,26/12/2020 20:30:00,41,Northward at Haywards,0.072,143,143
26/12/2020 20:30:00,26/12/2020 21:00:00,42,Northward at Haywards,0.056,112,112
26/12/2020 21:00:00,26/12/2020 21:30:00,43,Northward at Haywards,0.061,121,121
26/12/2020 21:30:00,26/12/2020 22:00:00,44,Northward at Haywards,0.041,81,81
26/12/2020 22:00:00,26/12/2020 22:30:00,45,Northward at Haywards,0.013,26,26
26/12/2020 22:30:00,26/12/2020 23:00:00,46,Southward at Benmore,-0.061,-123,-123
26/12/2020 23:00:00,26/12/2020 23:30:00,47,Southward at Benmore,-0.086,-173,-173
26/12/2020 23:30:00,27/12/2020 00:00:00,48,Southward at Benmore,-0.089,-179,-179
27/12/2020 00:00:00,27/12/2020 00:30:00,1,Southward at Benmore,-0.092,-185,-185
27/12/2020 00:30:00,27/12/2020 01:00:00,2,Southward at Benmore,-0.102,-204,-204
27/12/2020 01:00:00,27/12/2020 01:30:00,3,Southward at Benmore,-0.092,-185,-185
27/12/2020 01:30:00,27/12/2020 02:00:00,4,Southward at Benmore,-0.099,-199,-199
27/12/2020 02:00:00,27/12/2020 02:30:00,5,Southward at Benmore,-0.087,-174,-174
27/12/2020 02:30:00,27/12/2020 03:00:00,6,Southward at Benmore,-0.082,-165,-165
27/12/2020 03:00:00,27/12/2020 03:30:00,7,Southward at Benmore,-0.095,-191,-191
27/12/2020 03:30:00,27/12/2020 04:00:00,8,Southward at Benmore,-0.104,-208,-208
27/12/2020 04:00:00,27/12/2020 04:30:00,9,Southward at Benmore,-0.097,-194,-194
27/12/2020 04:30:00,27/12/2020 05:00:00,10,Southward at Benmore,-0.084,-169,-169
27/12/2020 05:00:00,27/12/2020 05:30:00,11,Southward at Benmore,-0.083,-167,-167
27/12/2020 05:30:00,27/12/2020 06:00:00,12,Southward at Benmore,-0.075,-150,-150
27/12/2020 06:00:00,27/12/2020 06:30:00,13,Southward at Benmore,-0.058,-117,-117
27/12/2020 06:30:00,27/12/2020 07:00:00,14,Southward at Benmore,-0.023,-47,-47
27/12/2020 07:00:00,27/12/2020 07:30:00,15,Northward at Haywards,0.001,2,2
27/12/2020 07:30:00,27/12/2020 08:00:00,16,Northward at Haywards,0.031,62,62
27/12/2020 08:00:00,27/12/2020 08:30:00,17,Northward at Haywards,0.079,158,158
27/12/2020 08:30:00,27/12/2020 09:00:00,18,Northward at Haywards,0.112,224,224
27/12/2020 09:00:00,27/12/2020 09:30:00,19,Northward at Haywards,0.122,243,243
27/12/2020 09:30:00,27/12/2020 10:00:00,20,Northward at Haywards,0.130,260,260
27/12/2020 10:00:00,27/12/2020 10:30:00,21,Northward at Haywards,0.131,262,262
27/12/2020 10:30:00,27/12/2020 11:00:00,22,Northward at Haywards,0.133,265,265
27/12/2020 11:00:00,27/12/2020 11:30:00,23,Northward at Haywards,0.119,238,238
27/12/2020 11:30:00,27/12/2020 12:00:00,24,Northward at Haywards,0.119,238,238
27/12/2020 12:00:00,27/12/2020 12:30:00,25,Northward at Haywards,0.109,218,218
27/12/2020 12:30:00,27/12/2020 13:00:00,26,Northward at Haywards,0.095,189,189
27/12/2020 13:00:00,27/12/2020 13:30:00,27,Northward at Haywards,0.078,156,156
27/12/2020 13:30:00,27/12/2020 14:00:00,28,Northward at Haywards,0.062,124,124
27/12/2020 14:00:00,27/12/2020 14:30:00,29,Northward at Haywards,0.076,152,152
27/12/2020 14:30:00,27/12/2020 15:00:00,30,Northward at Haywards,0.080,160,160
27/12/2020 15:00:00,27/12/2020 15:30:00,31,Northward at Haywards,0.070,139,139
27/12/2020 15:30:00,27/12/2020 16:00:00,32,Northward at Haywards,0.097,193,193
27/12/2020 16:00:00,27/12/2020 16:30:00,33,Northward at Haywards,0.100,200,200
27/12/2020 16:30:00,27/12/2020 17:00:00,34,Northward at Haywards,0.123,246,246
27/12/2020 17:00:00,27/12/2020 17:30:00,35,Northward at Haywards,0.141,282,282
27/12/2020 17:30:00,27/12/2020 18:00:00,36,Northward at Haywards,0.141,281,281
27/12/2020 18:00:00,27/12/2020 18:30:00,37,Northward at Haywards,0.131,262,262
27/12/2020 18:30:00,27/12/2020 19:00:00,38,Northward at Haywards,0.144,287,287
27/12/2020 19:00:00,27/12/2020 19:30:00,39,Northward at Haywards,0.117,233,233
27/12/2020 19:30:00,27/12/2020 20:00:00,40,Northward at Haywards,0.106,212,212
27/12/2020 20:00:00,27/12/2020 20:30:00,41,Northward at Haywards,0.115,229,229
27/12/2020 20:30:00,27/12/2020 21:00:00,42,Northward at Haywards,0.110,219,219
27/12/2020 21:00:00,27/12/2020 21:30:00,43,Northward at Haywards,0.099,198,198
27/12/2020 21:30:00,27/12/2020 22:00:00,44,Northward at Haywards,0.071,142,142
27/12/2020 22:00:00,27/12/2020 22:30:00,45,Northward at Haywards,0.021,42,42
27/12/2020 22:30:00,27/12/2020 23:00:00,46,Northward at Haywards,0.017,34,34
27/12/2020 23:00:00,27/12/2020 23:30:00,47,Southward at Benmore,-0.013,-26,-26
27/12/2020 23:30:00,28/12/2020 00:00:00,48,Southward at Benmore,-0.005,-10,-10
28/12/2020 00:00:00,28/12/2020 00:30:00,1,Southward at Benmore,-0.057,-114,-114
28/12/2020 00:30:00,28/12/2020 01:00:00,2,Southward at Benmore,-0.067,-135,-135
28/12/2020 01:00:00,28/12/2020 01:30:00,3,Southward at Benmore,-0.058,-117,-117
28/12/2020 01:30:00,28/12/2020 02:00:00,4,Southward at Benmore,-0.059,-118,-118
28/12/2020 02:00:00,28/12/2020 02:30:00,5,Southward at Benmore,-0.060,-121,-121
28/12/2020 02:30:00,28/12/2020 03:00:00,6,Southward at Benmore,-0.067,-135,-135
28/12/2020 03:00:00,28/12/2020 03:30:00,7,Southward at Benmore,-0.079,-159,-159
28/12/2020 03:30:00,28/12/2020 04:00:00,8,Southward at Benmore,-0.076,-152,-152
28/12/2020 04:00:00,28/12/2020 04:30:00,9,Southward at Benmore,-0.073,-146,-146
28/12/2020 04:30:00,28/12/2020 05:00:00,10,Southward at Benmore,-0.076,-153,-153
28/12/2020 05:00:00,28/12/2020 05:30:00,11,Southward at Benmore,-0.054,-108,-108
28/12/2020 05:30:00,28/12/2020 06:00:00,12,Southward at Benmore,-0.025,-51,-51
28/12/2020 06:00:00,28/12/2020 06:30:00,13,Southward at Benmore,-0.010,-20,-20
28/12/2020 06:30:00,28/12/2020 07:00:00,14,Northward at Haywards,0.012,24,24
28/12/2020 07:00:00,28/12/2020 07:30:00,15,Northward at Haywards,0.052,104,104
28/12/2020 07:30:00,28/12/2020 08:00:00,16,Northward at Haywards,0.088,175,175
28/12/2020 08:00:00,28/12/2020 08:30:00,17,Northward at Haywards,0.110,219,219
28/12/2020 08:30:00,28/12/2020 09:00:00,18,Northward at Haywards,0.150,299,299
28/12/2020 09:00:00,28/12/2020 09:30:00,19,Northward at Haywards,0.171,341,341
28/12/2020 09:30:00,28/12/2020 10:00:00,20,Northward at Haywards,0.173,346,346
28/12/2020 10:00:00,28/12/2020 10:30:00,21,Northward at Haywards,0.185,370,370
28/12/2020 10:30:00,28/12/2020 11:00:00,22,Northward at Haywards,0.169,338,338
28/12/2020 11:00:00,28/12/2020 11:30:00,23,Northward at Haywards,0.198,395,395
28/12/2020 11:30:00,28/12/2020 12:00:00,24,Northward at Haywards,0.210,420,420
28/12/2020 12:00:00,28/12/2020 12:30:00,25,Northward at Haywards,0.199,398,398
28/12/2020 12:30:00,28/12/2020 13:00:00,26,Northward at Haywards,0.182,363,363
28/12/2020 13:00:00,28/12/2020 13:30:00,27,Northward at Haywards,0.178,355,355
28/12/2020 13:30:00,28/12/2020 14:00:00,28,Northward at Haywards,0.171,342,342
28/12/2020 14:00:00,28/12/2020 14:30:00,29,Northward at Haywards,0.155,309,309
28/12/2020 14:30:00,28/12/2020 15:00:00,30,Northward at Haywards,0.166,332,332
28/12/2020 15:00:00,28/12/2020 15:30:00,31,Northward at Haywards,0.170,340,340
28/12/2020 15:30:00,28/12/2020 16:00:00,32,Northward at Haywards,0.176,352,352
28/12/2020 16:00:00,28/12/2020 16:30:00,33,Northward at Haywards,0.181,361,361
28/12/2020 16:30:00,28/12/2020 17:00:00,34,Northward at Haywards,0.210,419,419
28/12/2020 17:00:00,28/12/2020 17:30:00,35,Northward at Haywards,0.195,389,389
28/12/2020 17:30:00,28/12/2020 18:00:00,36,Northward at Haywards,0.219,438,438
28/12/2020 18:00:00,28/12/2020 18:30:00,37,Northward at Haywards,0.216,432,432
28/12/2020 18:30:00,28/12/2020 19:00:00,38,Northward at Haywards,0.207,414,414
28/12/2020 19:00:00,28/12/2020 19:30:00,39,Northward at Haywards,0.190,380,380
28/12/2020 19:30:00,28/12/2020 20:00:00,40,Northward at Haywards,0.187,373,373
28/12/2020 20:00:00,28/12/2020 20:30:00,41,Northward at Haywards,0.170,339,339
28/12/2020 20:30:00,28/12/2020 21:00:00,42,Northward at Haywards,0.167,333,333
28/12/2020 21:00:00,28/12/2020 21:30:00,43,Northward at Haywards,0.169,338,338
28/12/2020 21:30:00,28/12/2020 22:00:00,44,Northward at Haywards,0.162,324,324
28/12/2020 22:00:00,28/12/2020 22:30:00,45,Northward at Haywards,0.163,326,326
28/12/2020 22:30:00,28/12/2020 23:00:00,46,Northward at Haywards,0.136,271,271
28/12/2020 23:00:00,28/12/2020 23:30:00,47,Northward at Haywards,0.124,248,248
28/12/2020 23:30:00,29/12/2020 00:00:00,48,Northward at Haywards,0.103,205,205
29/12/2020 00:00:00,29/12/2020 00:30:00,1,Northward at Haywards,0.030,59,59
29/12/2020 00:30:00,29/12/2020 01:00:00,2,Northward at Haywards,0.014,28,28
29/12/2020 01:00:00,29/12/2020 01:30:00,3,Southward at Benmore,-0.001,-3,-3
29/12/2020 01:30:00,29/12/2020 02:00:00,4,Southward at Benmore,-0.015,-31,-31
29/12/2020 02:00:00,29/12/2020 02:30:00,5,Southward at Benmore,-0.008,-16,-16
29/12/2020 02:30:00,29/12/2020 03:00:00,6,Southward at Benmore,-0.004,-9,-9
29/12/2020 03:00:00,29/12/2020 03:30:00,7,Southward at Benmore,-0.002,-5,-5
29/12/2020 03:30:00,29/12/2020 04:00:00,8,Southward at Benmore,-0.015,-31,-31